Location: Casa Rossa
(45.2389°N, 12.2056°E)
Time: 03:54:24
(UTC+00:00)

Cosmos 1378 - Pass Details

Date: 14 July 2020
Orbit: 493 x 501 km, 82.5° (Epoch: 11 August)

Event Time Altitude Azimuth Distance (km) Brightness Sun altitude
Rises 01:51:17 0° 355° (N) 2,607 7.6 -14.5°
Reaches altitude 10° 01:53:28 10° 0° (N) 1,718 6.7 -14.3°
Maximum altitude 01:57:09 53° 79° (ENE) 623 3.9 -13.9°
Drops below altitude 10° 02:00:48 10° 157° (SSE) 1,703 5.5 -13.5°
Enters shadow 02:01:49 - 160° (SSE) 2,112 6.0 -13.4°
